This is the latest recevied weather packets stored in our database for station/object N1UNH. If no packets are shown the sender has not sent any weather packets the latest 10 day(s).
| Time | Temp. | Humidity | Pressure | Rain* | Wind** | Luminosity | Snow |
|---|---|---|---|---|---|---|---|
| 1778069917 | 15° C | 84% | 1013.9 hPa | 0 mm | - | 86 W/m² | - |
| 1778069614 | 15° C | 83% | 1014 hPa | 0 mm | - | 94 W/m² | - |
| 1778069311 | 15° C | 82% | 1014.1 hPa | 0 mm | - | 64 W/m² | - |
| 1778069009 | 15° C | 85% | 1014.1 hPa | 0 mm | - | 55 W/m² | - |
| 1778068706 | 15° C | 84% | 1014.2 hPa | 0 mm | - | 78 W/m² | - |
| 1778068404 | 14.44° C | 86% | 1014.4 hPa | 0 mm | - | 81 W/m² | - |
| 1778068102 | 14.44° C | 87% | 1014.4 hPa | 0 mm | - | 93 W/m² | - |
| 1778067799 | 13.89° C | 88% | 1014.2 hPa | 0 mm | - | 100 W/m² | - |
| 1778067498 | 13.89° C | 88% | 1014.4 hPa | 0 mm | - | 84 W/m² | - |
| 1778067195 | 13.89° C | 87% | 1014.2 hPa | 0 mm | - | 58 W/m² | - |
| 1778066891 | 13.89° C | 86% | 1014.2 hPa | 0 mm | - | 48 W/m² | - |
| 1778066589 | 13.33° C | 87% | 1014.3 hPa | 0 mm | - | 70 W/m² | - |
| 1778066286 | 13.33° C | 87% | 1014.4 hPa | 0 mm | - | 58 W/m² | - |
| 1778065984 | 13.33° C | 87% | 1014.3 hPa | 0 mm | - | 51 W/m² | - |
| 1778065681 | 12.78° C | 88% | 1014.3 hPa | 0 mm | - | 60 W/m² | - |
| 1778065378 | 12.78° C | 88% | 1014.3 hPa | 0 mm | - | 64 W/m² | - |
| 1778065074 | 12.78° C | 88% | 1014.5 hPa | 0 mm | - | 59 W/m² | - |
| 1778064772 | 12.22° C | 88% | 1014.4 hPa | 0 mm | - | 48 W/m² | - |
| 1778064469 | 12.22° C | 88% | 1014.4 hPa | 0 mm | - | 39 W/m² | - |
| 1778064167 | 12.22° C | 89% | 1014.6 hPa | 0 mm | - | 41 W/m² | - |
| 1778063864 | 12.22° C | 88% | 1014.7 hPa | 0 mm | - | 32 W/m² | - |
| 1778063561 | 12.22° C | 89% | 1014.3 hPa | 0 mm | - | 37 W/m² | - |
| 1778063259 | 12.22° C | 89% | 1014.5 hPa | 0 mm | - | 34 W/m² | - |
| 1778062957 | 12.22° C | 89% | 1014.5 hPa | 0 mm | - | 19 W/m² | - |
| 1778062654 | 12.22° C | 89% | 1014.2 hPa | 0 mm | - | 14 W/m² | - |
* Rain latest hour (hover to see other rain measurements)
** Current wind speed in m/s (hover to see current wind gust speed)